STARLINK-36691, 67735

Orbit data source: Space-Track

STARLINK-36691, 67735 is a payload satellite owned by SpaceX/Seattle (US) in SSO that was launched on Wed, 11 Feb 2026 UTC via an FALCON 9 launch vehicle from the Air Force Western Test Range (AFWTR). Payload-class satellites include a variety of spacecraft equipped with specific instruments for various scientific and technological missions. These include communications satellites like Starlink; space stations such as the ISS; scientific satellites like the Hubble; Earth observation satellites from companies like Planet Labs, Umbra, and HawkEye 360; GPS; miniature CubeSats for education and research; and military/defense satellites.

Loading next visibility...
Identifier
67735, 2026-026Q
Orbit
SSO
Country
Flag of USUS
Related business
Manufacturer
SpaceX/Seattle
Mission
Operational Commercial Communications
Bus & Motor
STARLINK V2MO, Unknown motor
Mass
575 kg wet, ~530 kg dry
Launch date (UTC)
2026-02-11 (4 months ago)
Launch vehicle
FALCON 9
Launch site
Air Force Western Test Range (AFWTR)
Object type
Payload
Rocket body
Debris
Shape & HBR
Box + 2 Pan, 17.7 m
Radar Cross Section
36.964 m², Large (>1 m²)

Expand to show TLE details & history
Last TLE update: 11 hours ago

TLE from 11 hours ago
0 STARLINK-36691
1 67735U 26026Q   26168.62947122  .00017634  00000-0  54751-3 0  9996
2 67735  97.2835 221.8463 0001160  84.9946 275.1430 15.33431493 19444
Epoch: 2026-06-17T15:06Z
TLE epoch observation values (Epoch: 2026-06-17T15:06:26.313Z)
Latitude
0.00007°
Longitude
89.35225°
Altitude
468.624 km
Speed
7.632 km/s
True Right ascension
14h 47m 23s
True Declination
0° 00' 00"
Sunlit
Object was in full shadow at epoch
Visualization orbit readout
Latitude
Unknown
Longitude
Unknown
Altitude
Unknown
Speed
Unknown
Apparent Right ascension
Unknown
Apparent Declination
Unknown
Sunlit
N/A
Visualization observer readout
Local Sidereal Time
13:06:29
Azimuth
Unknown
Elevation
Unknown
Doppler factor
Unknown
Orbital elements
Apogee altitude
463.32 km
Perigee altitude
461.733 km
Semi-major axis
6,840.663 km
Eccentricity
0.00012
Inclination
97.2835°
RAAN
221.8463°
Arg. of periapsis
84.9946°
True anomaly
275.12976°
Mean anomaly
275.143°
Eccentric anomaly
275.13638°
Mean motion
3.83615 °/min
Orbital period
93.84 mins
BSTAR
0.00054751
Loading maneuver chart data...
Computing Atmospheric mass density...
Loading historical data...
Loading historical data...
Loading historical data...
Loading historical data...
Loading historical data...
Loading historical data...
Loading historical data...

Documentation

Showing up to 5 results
|